Data for 04/05/2018

Time Sea-Level Adjusted Pressure Absolute Pressure Temperature Relative Humidity Dew Point   
(mb) (inHg) (mb) (inHg) (C) (F) (%) (C) (F)
00:05 1017 30.03 846 24.98 4.5 40.2 69 -0.6 30.9
00:10 1017 30.03 846 24.98 4.6 40.2 70 -0.5 31.1
00:15 1017 30.03 846 24.98 4.5 40 70 -0.4 31.2
00:20 1017 30.03 846 24.98 4.4 40 71 -0.4 31.3
00:25 1017 30.03 846 24.98 4.4 40 72 -0.2 31.7
00:30 1017 30.03 846 24.98 4.4 39.9 72 -0.2 31.6
00:35 1017 30.03 846 24.98 4.3 39.8 72 -0.2 31.6
00:40 1017 30.03 846 24.98 4.3 39.7 71 -0.4 31.3
00:45 1017 30.03 846 24.98 4.3 39.7 72 -0.3 31.4
00:50 1017 30.03 846 24.98 4.3 39.8 71 -0.5 31.2
00:55 1017 30.03 846 24.98 4.4 39.9 71 -0.5 31.1
01:00 1017 30.03 846 24.98 4.4 40 70 -0.5 31.1
01:05 1017 30.03 846 24.98 4.3 39.7 72 -0.4 31.3
01:10 1017 30.03 846 24.98 4.2 39.5 73 -0.2 31.6
01:15 1017 30.03 846 24.98 4.1 39.4 73 -0.3 31.5
01:20 1017 30.03 846 24.98 4.2 39.5 74 -0.1 31.8
01:25 1017 30.03 846 24.98 4.1 39.3 75 0.1 32.2
01:30 1017 30.03 846 24.98 4 39.2 73 -0.4 31.3
01:35 1017 30.03 846 24.98 4.2 39.5 71 -0.6 30.9
01:40 1017 30.03 846 24.98 4.5 40 70 -0.5 31
01:45 1017 30.03 846 24.98 4.5 40.2 74 0.3 32.6
01:50 1017 30.03 846 24.98 4.3 39.7 76 0.3 32.6
01:55 1017 30.03 846 24.98 4 39.2 75 0 32
02:00 1017 30.03 846 24.98 3.9 39.1 75 -0.2 31.7
02:05 1017 30.03 846 24.98 3.9 39.1 74 -0.3 31.5
02:10 1016 30 846 24.98 3.9 39.1 74 -0.2 31.7
02:15 1017 30.03 846 24.98 4 39.2 74 -0.3 31.4
02:20 1017 30.03 846 24.98 4.2 39.6 72 -0.3 31.4
02:25 1017 30.03 846 24.98 4.4 39.8 74 0.1 32.1
02:30 1017 30.03 846 24.98 4.4 39.9 74 0.1 32.2
02:35 1017 30.03 846 24.98 4.3 39.8 75 0.3 32.6
02:40 1017 30.03 846 24.98 4.3 39.7 75 0.3 32.5
02:45 1017 30.03 846 24.98 4.2 39.6 76 0.4 32.7
02:50 1017 30.03 846 24.98 4.2 39.5 76 0.3 32.5
02:55 1017 30.03 846 24.98 4.2 39.5 76 0.4 32.7
03:00 1017 30.03 846 24.98 4.1 39.4 76 0.3 32.6
03:05 1017 30.03 846 24.98 4.1 39.3 76 0.3 32.5
03:10 1017 30.03 846 24.98 4 39.3 77 0.4 32.7
03:15 1017 30.03 846 24.98 4 39.2 77 0.3 32.5
03:20 1016 30 846 24.98 3.9 39.1 77 0.2 32.4
03:25 1017 30.03 846 24.98 3.9 39.1 77 0.3 32.6
03:30 1017 30.03 846 24.98 3.9 39 78 0.4 32.6
03:35 1017 30.03 846 24.98 3.9 39 78 0.3 32.6
03:40 1017 30.03 846 24.98 3.8 38.8 78 0.3 32.6
03:45 1017 30.03 846 24.98 3.7 38.7 79 0.3 32.6
03:50 1017 30.03 846 24.98 3.6 38.5 79 0.3 32.6
03:55 1017 30.03 846 24.98 3.5 38.3 80 0.4 32.6
04:00 1017 30.03 846 24.98 3.5 38.3 81 0.5 32.8
04:05 1017 30.03 846 24.98 3.4 38.2 81 0.5 32.8
04:10 1017 30.03 846 24.98 3.4 38.1 81 0.5 32.9
04:15 1017 30.03 846 24.98 3.3 38 82 0.5 32.9
04:20 1017 30.03 846 24.98 3.3 37.9 81 0.4 32.7
04:25 1017 30.03 846 24.98 3.2 37.8 82 0.5 32.8
04:30 1017 30.03 846 24.98 3.1 37.7 82 0.4 32.7
04:35 1017 30.03 846 24.98 3.1 37.7 82 0.4 32.7
04:40 1017 30.03 846 24.98 3.1 37.5 82 0.3 32.6
04:45 1017 30.03 846 24.98 3.1 37.6 83 0.4 32.8
04:50 1017 30.03 846 24.98 3.1 37.6 82 0.4 32.7
04:55 1017 30.03 846 24.98 3.1 37.5 83 0.4 32.7
05:00 1017 30.03 846 24.98 3 37.4 83 0.4 32.8
05:05 1017 30.03 846 24.98 3 37.3 84 0.5 32.8
05:10 1017 30.03 847 25.01 3 37.3 83 0.4 32.7
05:15 1017 30.03 847 25.01 3 37.3 83 0.3 32.6
05:20 1017 30.03 847 25.01 2.9 37.3 83 0.3 32.5
05:25 1017 30.03 847 25.01 2.9 37.3 83 0.3 32.5
05:30 1017 30.03 847 25.01 2.9 37.2 83 0.3 32.6
05:35 1017 30.03 847 25.01 2.8 37.1 84 0.3 32.6
05:40 1018 30.06 847 25.01 2.8 37 84 0.4 32.7
05:45 1018 30.06 847 25.01 2.7 36.9 84 0.4 32.6
05:50 1018 30.06 847 25.01 2.7 36.8 85 0.3 32.6
05:55 1018 30.06 847 25.01 2.7 36.8 85 0.3 32.6
06:00 1018 30.06 847 25.01 2.7 36.9 85 0.4 32.7
06:05 1018 30.06 847 25.01 2.7 36.8 85 0.4 32.7
06:10 1018 30.06 847 25.01 2.7 36.8 85 0.4 32.7
06:15 1018 30.06 847 25.01 2.6 36.8 84 0.3 32.5
06:20 1018 30.06 847 25.01 2.6 36.7 84 0.2 32.4
06:25 1018 30.06 847 25.01 2.6 36.6 85 0.3 32.6
06:30 1018 30.06 847 25.01 2.6 36.6 85 0.3 32.5
06:35 1018 30.06 847 25.01 2.5 36.5 85 0.2 32.4
06:40 1018 30.06 847 25.01 2.4 36.3 86 0.2 32.4
06:45 1018 30.06 847 25.01 2.4 36.3 86 0.2 32.4
06:50 1018 30.06 847 25.01 2.4 36.3 86 0.3 32.5
06:55 1018 30.06 847 25.01 2.3 36.2 86 0.2 32.4
07:00 1018 30.06 847 25.01 2.3 36.1 86 0.2 32.4
07:05 1018 30.06 847 25.01 2.3 36.1 86 0.2 32.4
07:10 1018 30.06 847 25.01 2.2 36 87 0.2 32.4
07:15 1018 30.06 847 25.01 2.3 36.1 86 0.3 32.5
07:20 1018 30.06 847 25.01 2.3 36.2 86 0.2 32.4
07:25 1018 30.06 847 25.01 2.3 36.2 86 0.2 32.4
07:30 1018 30.06 847 25.01 2.3 36.1 86 0.2 32.3
07:35 1018 30.06 847 25.01 2.2 36 86 0.2 32.3
07:40 1018 30.06 847 25.01 2.2 36 86 0.2 32.3
07:45 1018 30.06 847 25.01 2.2 35.9 87 0.2 32.4
07:50 1018 30.06 847 25.01 2.2 35.9 87 0.3 32.5
07:55 1018 30.06 847 25.01 2.1 35.7 87 0.2 32.3
08:00 1018 30.06 847 25.01 2 35.5 88 0.1 32.2
08:05 1018 30.06 847 25.01 1.8 35.2 88 0 32
08:10 1018 30.06 847 25.01 1.5 34.7 89 -0 31.9
08:15 1018 30.06 847 25.01 1.5 34.7 90 -0.1 31.9
08:20 1018 30.06 847 25.01 1.4 34.6 90 -0.1 31.9
08:25 1018 30.06 847 25.01 1.5 34.6 90 -0 32
08:30 1018 30.06 847 25.01 1.5 34.6 90 -0 32
08:35 1018 30.06 847 25.01 1.4 34.6 90 -0.1 31.8
08:40 1018 30.06 847 25.01 1.3 34.4 89 -0.2 31.6
08:45 1018 30.06 847 25.01 1.2 34.1 90 -0.3 31.4
08:50 1018 30.06 847 25.01 1.2 34.1 90 -0.3 31.5
08:55 1018 30.06 848 25.04 0.9 33.7 90 -0.5 31.2
09:00 1018 30.06 848 25.04 0.7 33.2 91 -0.6 31
09:05 1018 30.06 848 25.04 0.8 33.5 91 -0.4 31.3
09:10 1018 30.06 848 25.04 0.8 33.4 91 -0.5 31
09:15 1018 30.06 848 25.04 0.6 33.1 90 -0.9 30.4
09:20 1018 30.06 848 25.04 0.2 32.3 90 -1.3 29.6
09:25 1018 30.06 848 25.04 0 32 88 -1.7 29
09:30 1018 30.06 848 25.04 -0.2 31.6 88 -2 28.5
09:35 1018 30.06 848 25.04 -0.5 31.2 88 -2.3 27.9
09:40 1018 30.06 848 25.04 -0.6 31 87 -2.4 27.6
09:45 1019 30.09 848 25.04 -0.7 30.7 87 -2.5 27.4
09:50 1019 30.09 848 25.04 -0.7 30.8 88 -2.5 27.6
09:55 1019 30.09 848 25.04 -0.6 30.9 87 -2.5 27.5
10:00 1019 30.09 848 25.04 -0.6 30.9 87 -2.5 27.4
10:05 1019 30.09 848 25.04 -0.7 30.7 87 -2.7 27.1
10:10 1019 30.09 848 25.04 -0.8 30.6 86 -2.8 27
10:15 1019 30.09 848 25.04 -0.8 30.5 87 -2.8 27
10:20 1019 30.09 848 25.04 -0.8 30.6 87 -2.8 27
10:25 1019 30.09 848 25.04 -0.7 30.7 87 -2.7 27.2
10:30 1019 30.09 848 25.04 -0.5 31.1 85 -2.8 27
10:35 1019 30.09 848 25.04 -0.7 30.7 87 -2.6 27.3
10:40 1019 30.09 848 25.04 -0.7 30.7 86 -2.7 27.1
10:45 1019 30.09 848 25.04 -0.8 30.5 87 -2.7 27.2
10:50 1019 30.09 848 25.04 -0.7 30.8 87 -2.6 27.3
10:55 1019 30.09 848 25.04 -0.6 31 86 -2.6 27.3
11:00 1019 30.09 848 25.04 -0.4 31.3 83 -3 26.6
11:05 1019 30.09 848 25.04 -0.4 31.2 81 -3.4 25.9
11:10 1019 30.09 848 25.04 -0.6 31 81 -3.5 25.7
11:15 1019 30.09 848 25.04 -0.6 30.9 79 -3.8 25.2
11:20 1019 30.09 848 25.04 -0.7 30.7 81 -3.6 25.5
11:25 1019 30.09 848 25.04 -0.5 31 79 -3.8 25.2
11:30 1019 30.09 848 25.04 -0.4 31.3 78 -3.7 25.3
11:35 1019 30.09 848 25.04 -0.3 31.5 77 -3.9 25.1
11:40 1019 30.09 848 25.04 -0.2 31.6 82 -3 26.7
11:45 1019 30.09 848 25.04 -0.2 31.7 84 -2.5 27.4
11:50 1019 30.09 848 25.04 0.1 32.1 82 -2.6 27.4
11:55 1019 30.09 848 25.04 0.1 32.1 82 -2.7 27.1
12:00 1019 30.09 848 25.04 0.1 32.2 80 -2.9 26.7
12:05 1019 30.09 848 25.04 -0.2 31.7 83 -2.7 27.2
12:10 1019 30.09 848 25.04 0.2 32.3 81 -2.8 27
12:15 1019 30.09 848 25.04 0 32.1 83 -2.6 27.3
12:20 1019 30.09 848 25.04 -0 31.9 81 -2.9 26.8
12:25 1019 30.09 848 25.04 -0.4 31.4 83 -2.9 26.8
12:30 1019 30.09 848 25.04 -0.4 31.3 84 -2.8 27
12:35 1019 30.09 848 25.04 -0.2 31.7 82 -3 26.7
12:40 1019 30.09 848 25.04 -0.5 31.2 83 -3 26.5
12:45 1019 30.09 848 25.04 -0.5 31.1 83 -3.1 26.5
12:50 1019 30.09 848 25.04 -0.4 31.2 83 -3 26.6
12:55 1018 30.06 848 25.04 -0.4 31.3 80 -3.4 25.8
13:00 1018 30.06 848 25.04 -0.2 31.6 81 -3 26.5
13:05 1018 30.06 848 25.04 0.4 32.7 80 -2.7 27.2
13:10 1018 30.06 848 25.04 0.9 33.6 78 -2.6 27.4
13:15 1018 30.06 848 25.04 0.8 33.5 73 -3.5 25.6
13:20 1018 30.06 848 25.04 0.7 33.3 75 -3.2 26.2
13:25 1018 30.06 848 25.04 1.5 34.6 77 -2.1 28.2
13:30 1018 30.06 847 25.01 2 35.6 73 -2.3 27.9
13:35 1018 30.06 848 25.04 1.8 35.3 72 -2.7 27.1
13:40 1018 30.06 847 25.01 1.3 34.4 74 -2.9 26.9
13:45 1018 30.06 847 25.01 0.9 33.6 77 -2.8 27
13:50 1018 30.06 847 25.01 1.6 34.9 73 -2.7 27.1
13:55 1018 30.06 847 25.01 1.8 35.2 72 -2.8 27
14:00 1018 30.06 847 25.01 1.7 35.1 71 -3 26.7
14:05 1018 30.06 847 25.01 1.8 35.3 71 -2.8 27
14:10 1018 30.06 847 25.01 1.9 35.4 72 -2.7 27.2
14:15 1018 30.06 847 25.01 1.8 35.2 72 -2.8 26.9
14:20 1018 30.06 847 25.01 1.9 35.5 70 -3 26.6
14:25 1018 30.06 847 25.01 1.2 34.2 63 -5 23
14:30 1018 30.06 847 25.01 0.9 33.5 66 -4.9 23.2
14:35 1018 30.06 847 25.01 0.9 33.6 65 -5 23
14:40 1018 30.06 847 25.01 1.1 33.9 61 -5.6 22
14:45 1018 30.06 847 25.01 0.9 33.6 63 -5.4 22.2
14:50 1018 30.06 847 25.01 0.4 32.7 66 -5.3 22.5
14:55 1018 30.06 847 25.01 0.2 32.4 65 -5.6 22
15:00 1018 30.06 847 25.01 0.6 33 65 -5.2 22.6
15:05 1018 30.06 847 25.01 1 33.7 63 -5.4 22.3
15:10 1018 30.06 847 25.01 0.6 33.2 64 -5.4 22.2
15:15 1018 30.06 847 25.01 0.4 32.7 63 -5.9 21.4
15:20 1018 30.06 847 25.01 0.3 32.6 64 -5.7 21.7
15:25 1018 30.06 847 25.01 0.7 33.3 61 -5.9 21.4
15:30 1018 30.06 847 25.01 0.9 33.5 62 -5.5 22.1
15:35 1018 30.06 847 25.01 1.1 34 61 -5.5 22.2
15:40 1018 30.06 847 25.01 0.8 33.5 61 -5.8 21.5
15:45 1018 30.06 847 25.01 1.1 34 61 -5.6 22
15:50 1017 30.03 847 25.01 1 33.8 62 -5.5 22.1
15:55 1017 30.03 847 25.01 0.5 32.9 64 -5.6 21.9
16:00 1017 30.03 847 25.01 0 32 64 -6 21.2
16:05 1017 30.03 847 25.01 -0 31.9 64 -6 21.1
16:10 1017 30.03 846 24.98 -0.1 31.7 65 -5.9 21.4
16:15 1017 30.03 846 24.98 -0.1 31.9 63 -6.3 20.6
16:20 1017 30.03 846 24.98 -0.6 31 65 -6.3 20.7
16:25 1017 30.03 846 24.98 -0.8 30.5 65 -6.5 20.3
16:30 1017 30.03 846 24.98 -1.1 30 67 -6.5 20.2
16:35 1017 30.03 846 24.98 -1.3 29.6 67 -6.7 20
16:40 1017 30.03 846 24.98 -1 30.2 65 -6.7 20
16:45 1017 30.03 846 24.98 -0.6 30.8 63 -6.8 19.8
16:50 1017 30.03 846 24.98 -0.8 30.6 65 -6.6 20.1
16:55 1017 30.03 846 24.98 -0.8 30.6 64 -6.8 19.7
17:00 1017 30.03 846 24.98 -1.1 30.1 66 -6.7 19.9
17:05 1017 30.03 846 24.98 -1.4 29.5 66 -6.9 19.6
17:10 1017 30.03 846 24.98 -1.4 29.4 66 -7.1 19.3
17:15 1017 30.03 846 24.98 -1.4 29.5 65 -7.2 19
17:20 1017 30.03 846 24.98 -1.6 29.1 67 -6.9 19.5
17:25 1017 30.03 846 24.98 -1.8 28.8 67 -7.1 19.3
17:30 1017 30.03 846 24.98 -2.1 28.2 68 -7.2 19.1
17:35 1017 30.03 846 24.98 -2.3 27.9 69 -7.2 19
17:40 1017 30.03 846 24.98 -2.4 27.7 70 -7.2 19
17:45 1017 30.03 846 24.98 -2.5 27.6 69 -7.3 18.8
17:50 1017 30.03 846 24.98 -2.7 27.2 70 -7.5 18.6
17:55 1017 30.03 846 24.98 -2.9 26.7 71 -7.5 18.5
18:00 1017 30.03 846 24.98 -3 26.6 71 -7.5 18.5
18:05 1017 30.03 846 24.98 -3 26.7 72 -7.3 18.8
18:10 1017 30.03 846 24.98 -3.1 26.4 75 -7 19.4
18:15 1017 30.03 846 24.98 -3.3 26 77 -6.7 19.9
18:20 1017 30.03 846 24.98 -3.5 25.7 78 -6.8 19.8
18:25 1017 30.03 846 24.98 -3.7 25.4 78 -6.9 19.5
18:30 1017 30.03 846 24.98 -3.8 25.2 77 -7.3 18.9
18:35 1017 30.03 846 24.98 -4 24.8 79 -7 19.3
18:40 1017 30.03 846 24.98 -4.1 24.6 80 -7.1 19.3
18:45 1017 30.03 846 24.98 -4.2 24.4 81 -7 19.5
18:50 1017 30.03 846 24.98 -4.3 24.2 82 -7 19.4
18:55 1017 30.03 846 24.98 -4.5 24 82 -7 19.4
19:00 1017 30.03 846 24.98 -4.5 23.9 83 -7 19.3
19:05 1017 30.03 846 24.98 -4.5 23.8 82 -7.2 19
19:10 1017 30.03 846 24.98 -4.6 23.8 80 -7.5 18.5
19:15 1017 30.03 846 24.98 -4.6 23.7 80 -7.6 18.4
19:20 1017 30.03 846 24.98 -4.7 23.5 81 -7.5 18.5
19:25 1017 30.03 846 24.98 -4.8 23.3 81 -7.7 18.2
19:30 1017 30.03 846 24.98 -4.9 23.2 81 -7.7 18.1
19:35 1017 30.03 846 24.98 -5 23 81 -7.8 18
19:40 1017 30.03 846 24.98 -5 22.9 81 -7.8 18
19:45 1017 30.03 846 24.98 -5.1 22.8 83 -7.5 18.5
19:50 1017 30.03 846 24.98 -5.2 22.7 83 -7.6 18.3
19:55 1017 30.03 846 24.98 -5.2 22.7 83 -7.6 18.2
20:00 1017 30.03 846 24.98 -5.3 22.5 82 -7.8 17.9
20:05 1017 30.03 846 24.98 -5.4 22.3 83 -7.8 17.9
20:10 1017 30.03 846 24.98 -5.4 22.2 82 -8 17.7
20:15 1017 30.03 846 24.98 -5.4 22.2 82 -8 17.6
20:20 1017 30.03 846 24.98 -5.5 22.1 81 -8.2 17.2
20:25 1017 30.03 846 24.98 -5.5 22.1 81 -8.3 17
20:30 1017 30.03 846 24.98 -5.5 22 80 -8.5 16.6
20:35 1017 30.03 846 24.98 -5.5 22 78 -8.8 16.2
20:40 1017 30.03 846 24.98 -5.5 22.1 76 -9 15.8
20:45 1017 30.03 846 24.98 -5.5 22.1 77 -9 15.9
20:50 1017 30.03 846 24.98 -5.5 22.1 78 -8.9 16.1
20:55 1017 30.03 847 25.01 -5.6 21.9 77 -9 15.8
21:00 1017 30.03 847 25.01 -5.7 21.7 79 -8.9 16
21:05 1017 30.03 847 25.01 -5.9 21.4 80 -8.9 16
21:10 1018 30.06 847 25.01 -6 21.2 80 -8.9 16
21:15 1018 30.06 847 25.01 -6.2 20.9 80 -9 15.7
21:20 1018 30.06 847 25.01 -6.2 20.8 78 -9.4 15.1
21:25 1018 30.06 847 25.01 -6.2 20.8 78 -9.5 14.9
21:30 1018 30.06 847 25.01 -6.3 20.7 78 -9.5 15
21:35 1018 30.06 847 25.01 -6.3 20.6 78 -9.5 14.9
21:40 1018 30.06 847 25.01 -6.4 20.5 79 -9.5 15
21:45 1018 30.06 847 25.01 -6.4 20.4 79 -9.5 14.9
21:50 1018 30.06 847 25.01 -6.5 20.4 79 -9.5 14.9
21:55 1018 30.06 847 25.01 -6.5 20.4 78 -9.8 14.4
22:00 1018 30.06 847 25.01 -6.4 20.5 76 -9.9 14.1
22:05 1018 30.06 847 25.01 -6.4 20.5 77 -9.8 14.3
22:10 1018 30.06 847 25.01 -6.4 20.5 76 -9.9 14.1
22:15 1018 30.06 847 25.01 -6.4 20.5 75 -10.1 13.9
22:20 1018 30.06 847 25.01 -6.4 20.4 76 -9.9 14.1
22:25 1018 30.06 847 25.01 -6.5 20.3 75 -10.2 13.7
22:30 1018 30.06 847 25.01 -6.5 20.3 76 -10.1 13.9
22:35 1018 30.06 847 25.01 -6.5 20.2 76 -10.1 13.9
22:40 1018 30.06 847 25.01 -6.6 20.2 75 -10.3 13.5
22:45 1018 30.06 847 25.01 -6.7 20 76 -10.3 13.5
22:50 1018 30.06 848 25.04 -6.7 19.9 77 -10.2 13.7
22:55 1018 30.06 848 25.04 -6.8 19.7 77 -10.3 13.5
23:00 1018 30.06 848 25.04 -6.9 19.6 76 -10.4 13.2
23:05 1018 30.06 848 25.04 -7 19.5 76 -10.4 13.2
23:10 1018 30.06 847 25.01 -7 19.4 77 -10.5 13.2
23:15 1018 30.06 848 25.04 -7.1 19.2 78 -10.3 13.5
23:20 1018 30.06 848 25.04 -7.2 19.1 79 -10.3 13.5
23:25 1018 30.06 847 25.01 -7.3 18.9 77 -10.6 12.9
23:30 1018 30.06 848 25.04 -7.3 18.9 76 -10.7 12.7
23:35 1018 30.06 848 25.04 -7.3 18.9 77 -10.6 13
23:40 1018 30.06 848 25.04 -7.4 18.8 78 -10.5 13.1
23:45 1018 30.06 848 25.04 -7.4 18.7 78 -10.6 12.8
23:50 1018 30.06 848 25.04 -7.4 18.7 77 -10.7 12.7
23:55 1018 30.06 847 25.01 -7.4 18.7 77 -10.9 12.5
24:00 1018 30.06 848 25.04 -7.4 18.7 74 -11.2 11.9